When you browse on this site, cookies collect data to enhance your experience and personalize the content and advertising you see.
Visit our Privacy Policy to learn more. By continuing to use the site, you agree to this use of cookies and data.
  • In Hungary
  • List of Countries
  • For 7 days
  • Water Temperature
  • Weather Map
  • News
  • Weather Widgets
  • user-avatar
    Login

    Hourly Weather Florencia

    Today, 22 November, Friday

    Time Temperature Precipitation Wind Pressure Humidity
    00:00 +25°C° 0 mm 1 mps 731 mmHg 82%
    01:00 +25°C° 0 mm 1 mps 731 mmHg 82%
    02:00 +25°C° 0 mm 1 mps 731 mmHg 82%
    03:00 +25°C° 0 mm 1 mps 731 mmHg 83%
    04:00 +24°C° 0 mm 1 mps 731 mmHg 83%
    05:00 +25°C° 0 mm 1 mps 731 mmHg 82%
    06:00 +25°C° 0 mm 1 mps 732 mmHg 81%
    07:00 +26°C° 0 mm 1 mps 732 mmHg 80%
    08:00 +28°C° 0 mm 1 mps 732 mmHg 72%
    09:00 +31°C° 0 mm 1 mps 733 mmHg 65%
    10:00 +33°C° 0 mm 1 mps 733 mmHg 57%
    11:00 +33°C° 0.5 mm 1 mps 732 mmHg 59%
    12:00 +34°C° 0.5 mm 1 mps 731 mmHg 61%
    13:00 +34°C° 0.5 mm 1 mps 730 mmHg 64%
    14:00 +33°C° 1 mm 1 mps 729 mmHg 67%
    15:00 +31°C° 1 mm 0 mps 729 mmHg 70%
    16:00 +30°C° 1 mm 0 mps 728 mmHg 74%
    17:00 +30°C° 0.9 mm 1 mps 729 mmHg 79%
    18:00 +28°C° 0.9 mm 1 mps 729 mmHg 84%
    19:00 +27°C° 0.9 mm 1 mps 730 mmHg 88%
    20:00 +26°C° 0.4 mm 1 mps 731 mmHg 89%
    21:00 +26°C° 0.4 mm 1 mps 731 mmHg 90%
    22:00 +25°C° 0.4 mm 2 mps 732 mmHg 91%
    23:00 +25°C° 0 mm 2 mps 731 mmHg 91%

    Tomorrow, 23 November, Saturday

    Time Temperature Precipitation Wind Pressure Humidity
    00:00 +25°C° 0 mm 1 mps 731 mmHg 90%
    01:00 +25°C° 0 mm 1 mps 731 mmHg 89%
    02:00 +25°C° 0 mm 1 mps 730 mmHg 88%
    03:00 +25°C° 0 mm 1 mps 730 mmHg 87%
    04:00 +25°C° 0 mm 1 mps 730 mmHg 86%
    05:00 +25°C° 0 mm 1 mps 731 mmHg 85%
    06:00 +25°C° 0 mm 1 mps 731 mmHg 85%
    07:00 +26°C° 0 mm 1 mps 732 mmHg 84%
    08:00 +28°C° 0 mm 1 mps 732 mmHg 76%
    09:00 +30°C° 0 mm 1 mps 733 mmHg 68%
    10:00 +32°C° 0 mm 1 mps 733 mmHg 60%
    11:00 +32°C° 0.4 mm 1 mps 732 mmHg 61%
    12:00 +33°C° 0.4 mm 1 mps 731 mmHg 62%
    13:00 +33°C° 0.4 mm 1 mps 730 mmHg 62%
    14:00 +33°C° 0.9 mm 1 mps 730 mmHg 67%
    15:00 +32°C° 0.9 mm 1 mps 729 mmHg 72%
    16:00 +30°C° 0.9 mm 0 mps 729 mmHg 76%
    17:00 +30°C° 1.4 mm 1 mps 729 mmHg 81%
    18:00 +28°C° 1.4 mm 1 mps 730 mmHg 87%
    19:00 +26°C° 1.4 mm 1 mps 730 mmHg 92%
    20:00 +26°C° 0.4 mm 1 mps 731 mmHg 92%
    21:00 +25°C° 0.4 mm 1 mps 732 mmHg 92%
    22:00 +25°C° 0.4 mm 1 mps 732 mmHg 92%
    23:00 +25°C° 1.8 mm 1 mps 732 mmHg 94%

    Day after tomorrow, 24 November, Sunday

    Time Temperature Precipitation Wind Pressure Humidity
    00:00 +24°C° 1.8 mm 1 mps 732 mmHg 96%
    01:00 +24°C° 1.8 mm 1 mps 732 mmHg 97%
    02:00 +24°C° 0.8 mm 1 mps 731 mmHg 97%
    03:00 +24°C° 0.8 mm 1 mps 731 mmHg 97%
    04:00 +24°C° 0.8 mm 1 mps 731 mmHg 97%
    05:00 +24°C° 0.3 mm 1 mps 731 mmHg 96%
    06:00 +25°C° 0.3 mm 1 mps 732 mmHg 96%
    07:00 +25°C° 0.3 mm 1 mps 732 mmHg 95%
    08:00 +26°C° 0.2 mm 1 mps 733 mmHg 90%
    09:00 +28°C° 0.2 mm 1 mps 733 mmHg 85%
    10:00 +30°C° 0.2 mm 1 mps 733 mmHg 80%
    11:00 +30°C° 1.1 mm 1 mps 732 mmHg 81%
    12:00 +30°C° 1.1 mm 1 mps 731 mmHg 82%
    13:00 +29°C° 1.1 mm 0 mps 730 mmHg 83%
    14:00 +28°C° 1.1 mm 0 mps 730 mmHg 85%
    15:00 +28°C° 1.1 mm 0 mps 729 mmHg 87%
    16:00 +27°C° 1.1 mm 0 mps 729 mmHg 89%
    17:00 +26°C° 0.9 mm 0 mps 729 mmHg 91%
    18:00 +25°C° 0.9 mm 0 mps 730 mmHg 94%
    19:00 +24°C° 0.9 mm 0 mps 730 mmHg 96%
    20:00 +23°C° 1.3 mm 0 mps 731 mmHg 96%
    21:00 +23°C° 1.3 mm 0 mps 732 mmHg 97%
    22:00 +23°C° 1.3 mm 0 mps 732 mmHg 97%
    23:00 +22°C° 1.3 mm 0 mps 732 mmHg 97%

    25 November, Monday

    Time Temperature Precipitation Wind Pressure Humidity
    00:00 +24°C° 1.3 mm 1 mps 731 mmHg 97%
    01:00 +24°C° 1.3 mm 1 mps 731 mmHg 97%
    02:00 +24°C° 0.1 mm 1 mps 731 mmHg 97%
    03:00 +24°C° 0.1 mm 1 mps 730 mmHg 97%
    04:00 +23°C° 0.1 mm 1 mps 730 mmHg 97%
    05:00 +24°C° 0 mm 1 mps 731 mmHg 96%
    06:00 +24°C° 0 mm 1 mps 731 mmHg 95%
    07:00 +24°C° 0 mm 1 mps 731 mmHg 94%
    08:00 +23°C° 0.3 mm 0 mps 732 mmHg 92%
    09:00 +24°C° 0.3 mm 0 mps 732 mmHg 91%
    10:00 +25°C° 0.3 mm 0 mps 732 mmHg 89%
    11:00 +29°C° 0.2 mm 1 mps 731 mmHg 80%
    12:00 +31°C° 0.2 mm 1 mps 730 mmHg 70%
    13:00 +33°C° 0.2 mm 1 mps 729 mmHg 61%
    14:00 +32°C° 0.5 mm 1 mps 729 mmHg 68%
    15:00 +31°C° 0.5 mm 1 mps 728 mmHg 74%
    16:00 +28°C° 0.5 mm 0 mps 728 mmHg 81%
    17:00 +27°C° 0.4 mm 0 mps 728 mmHg 85%
    18:00 +25°C° 0.4 mm 0 mps 729 mmHg 90%
    19:00 +24°C° 0.4 mm 0 mps 729 mmHg 94%
    20:00 +25°C° 0.2 mm 1 mps 730 mmHg 94%
    21:00 +25°C° 0.2 mm 1 mps 730 mmHg 95%
    22:00 +25°C° 0.2 mm 1 mps 731 mmHg 95%
    23:00 +24°C° 0.1 mm 1 mps 731 mmHg 95%

    26 November, Tuesday

    Time Temperature Precipitation Wind Pressure Humidity
    00:00 +24°C° 0.1 mm 1 mps 730 mmHg 95%
    01:00 +24°C° 0.1 mm 1 mps 730 mmHg 95%
    02:00 +24°C° 0 mm 1 mps 730 mmHg 94%
    03:00 +24°C° 0 mm 1 mps 730 mmHg 94%
    04:00 +24°C° 0 mm 1 mps 730 mmHg 93%
    05:00 +24°C° 0 mm 1 mps 730 mmHg 91%
    06:00 +25°C° 0 mm 1 mps 731 mmHg 89%
    07:00 +23°C° 0 mm 0 mps 731 mmHg 88%
    08:00 +25°C° 0 mm 0 mps 732 mmHg 82%
    09:00 +27°C° 0 mm 0 mps 732 mmHg 75%
    10:00 +29°C° 0 mm 0 mps 732 mmHg 69%
    11:00 +31°C° 0.4 mm 1 mps 731 mmHg 69%
    12:00 +32°C° 0.4 mm 1 mps 730 mmHg 69%
    13:00 +33°C° 0.4 mm 1 mps 729 mmHg 69%
    14:00 +32°C° 0.9 mm 1 mps 729 mmHg 73%
    15:00 +30°C° 0.9 mm 0 mps 728 mmHg 76%
    16:00 +29°C° 0.9 mm 0 mps 728 mmHg 80%
    17:00 +30°C° 0.3 mm 1 mps 728 mmHg 84%
    18:00 +28°C° 0.3 mm 1 mps 729 mmHg 88%
    19:00 +26°C° 0.3 mm 1 mps 729 mmHg 91%
    20:00 +26°C° 3.3 mm 1 mps 730 mmHg 93%
    21:00 +25°C° 3.3 mm 1 mps 730 mmHg 95%
    22:00 +25°C° 3.3 mm 1 mps 731 mmHg 98%
    23:00 +25°C° 0.1 mm 1 mps 731 mmHg 97%

    27 November, Wednesday

    Time Temperature Precipitation Wind Pressure Humidity
    00:00 +24°C° 0.1 mm 1 mps 731 mmHg 96%
    01:00 +24°C° 0.1 mm 1 mps 731 mmHg 95%
    02:00 +24°C° 0 mm 1 mps 730 mmHg 95%
    03:00 +24°C° 0 mm 1 mps 730 mmHg 94%
    04:00 +24°C° 0 mm 1 mps 730 mmHg 94%
    05:00 +22°C° 0.2 mm 0 mps 731 mmHg 93%
    06:00 +23°C° 0.2 mm 0 mps 731 mmHg 92%
    07:00 +23°C° 0.2 mm 0 mps 732 mmHg 90%
    08:00 +25°C° 0 mm 0 mps 732 mmHg 83%
    09:00 +29°C° 0 mm 1 mps 732 mmHg 75%
    10:00 +31°C° 0 mm 1 mps 732 mmHg 67%
    11:00 +32°C° 0.5 mm 1 mps 731 mmHg 70%
    12:00 +32°C° 0.5 mm 1 mps 730 mmHg 72%
    13:00 +30°C° 0.5 mm 0 mps 729 mmHg 74%
    14:00 +29°C° 1.2 mm 0 mps 729 mmHg 79%
    15:00 +29°C° 1.2 mm 0 mps 729 mmHg 84%
    16:00 +28°C° 1.2 mm 0 mps 728 mmHg 89%
    17:00 +29°C° 1.4 mm 1 mps 729 mmHg 91%
    18:00 +27°C° 1.4 mm 1 mps 730 mmHg 93%
    19:00 +26°C° 1.4 mm 1 mps 730 mmHg 96%
    20:00 +26°C° 2.1 mm 1 mps 731 mmHg 96%
    21:00 +25°C° 2.1 mm 1 mps 731 mmHg 97%
    22:00 +25°C° 2.1 mm 1 mps 732 mmHg 97%
    23:00 +25°C° 0.3 mm 1 mps 732 mmHg 97%
    Show more